Location: Capelle
(50.3413°N, 1.9974°E)
Time: 18:28:47
(UTC+00:00)

Resurs 01 Rocket - Pass Details

Date: 18 April 2026
Orbit: 626 x 636 km, 97.7° (Epoch: 12 May)

Event Time Altitude Azimuth Distance (km) Brightness Sun altitude
Rises 19:51:02 0° 208° (SSW) 2,910 5.0 -9.5°
Reaches altitude 10° 19:53:53 10° 228° (SW) 2,006 4.4 -9.9°
Maximum altitude 19:56:49 17° 270° (W) 1,576 4.5 -10.3°
Drops below altitude 10° 19:59:45 10° 313° (NW) 2,014 5.7 -10.7°
Sets 20:02:38 0° 333° (NNW) 2,927 6.2 -11.1°
